Location: South Tamworth Observatory
(43.8246°N, 71.3026°W)
Time: 01:32:30
(UTC-04:00)

Amateur Radio Satellites - All Passes

Search period start: 26 September 2017 01:02
Search period end: 27 September 2017 01:02
Location: South Tamworth Observatory, 43.8246°N, 71.3026°W

Satellite Date Start Highest point End Downlink Frequencies (MHz)
Time Altitude Azimuth
BUGSAT 1 26 Sep 01:03:08 01:06:41 26° 95° (E) 01:10:13 437.445
Oscar 19 26 Sep 01:06:42 01:09:39 15° 90° (E) 01:12:34 437.125/150
Gurwin Techsat 1B 26 Sep 01:12:42 01:14:30 12° 87° (E) 01:16:18 435.225
QB50P2 26 Sep 01:13:17 01:17:24 47° 288° (WNW) 01:21:30 145.880/145.840
SPROUT 26 Sep 01:16:26 01:19:48 23° 266° (W) 01:23:12 437.525
50 SAT 26 Sep 01:18:16 01:21:34 76° 258° (WSW) 01:24:53 437.505
nSIGHT-1 26 Sep 01:19:41 01:22:50 46° 25° (NNE) 01:25:59 .
VELOX 1 26 Sep 01:36:52 01:40:06 20° 267° (W) 01:43:21 145.980
YUBILEINY 26 Sep 01:42:10 01:47:08 17° 285° (WNW) 01:52:07 435.215
NANOSAT C BR1 26 Sep 01:46:30 01:50:05 27° 293° (WNW) 01:53:39 145.865
O/OREOS (USA 219) 26 Sep 01:51:44 01:56:06 52° 108° (ESE) 02:00:31 437.305
ITUPSAT 1 26 Sep 02:03:18 02:06:50 21° 63° (ENE) 02:10:23 437.325
M-CUBED/EXP-1 PRIME 26 Sep 02:10:15 02:13:29 54° 291° (WNW) 02:16:38 437.505
DUCHIFAT 1 26 Sep 02:14:11 02:16:54 17° 297° (WNW) 02:19:36 145.980
ISS 26 Sep 02:21:30 02:24:46 62° 215° (SW) 02:28:01 437.550
UKube-1 26 Sep 02:24:09 02:28:01 32° 263° (W) 02:31:55 .
BEESAT 26 Sep 02:37:01 02:41:31 43° 69° (ENE) 02:46:02 436.000
DX 1 26 Sep 02:37:57 02:40:41 16° 268° (W) 02:43:26 434.975-435.025
BUGSAT 1 26 Sep 02:38:20 02:42:00 29° 292° (WNW) 02:45:41 437.445
Oscar 19 26 Sep 02:44:19 02:49:28 70° 287° (WNW) 02:54:34 437.125/150
AO-7 26 Sep 02:44:47 02:49:36 16° 88° (E) 02:54:24 .
MOZHAYETS 4 26 Sep 02:45:36 02:50:02 49° 71° (ENE) 02:54:32
Gurwin Techsat 1B 26 Sep 02:49:48 02:55:10 90° 101° (E) 03:00:29 435.225
RS-15 26 Sep 02:53:20 02:59:06 15° 94° (E) 03:04:53 29.354- 29.394
nSIGHT-1 26 Sep 02:56:14 02:59:02 26° 223° (SW) 03:01:49 .
BEESAT 3 26 Sep 03:14:59 03:18:44 38° 49° (NE) 03:22:25 437.485
CUBESAT XI-V 26 Sep 03:19:38 03:23:27 25° 66° (ENE) 03:27:17 437.345
BEESAT 2 26 Sep 03:28:48 03:31:55 21° 42° (NE) 03:35:00 435.950
O/OREOS (USA 219) 26 Sep 03:32:34 03:35:50 19° 307° (NW) 03:39:08 437.305
AO-85 26 Sep 03:35:32 03:39:17 27° 45° (NE) 03:43:15 145.980
ITUPSAT 1 26 Sep 03:39:42 03:44:19 48° 260° (W) 03:48:58 437.325
ITAMSAT 1 26 Sep 03:54:57 03:59:47 37° 98° (E) 04:04:36 435.822/435.867
BEESAT 26 Sep 04:15:46 04:19:27 22° 266° (W) 04:23:09 436.000
KKS-1 26 Sep 04:23:25 04:27:31 39° 70° (ENE) 04:31:38 437.445
MOZHAYETS 4 26 Sep 04:24:16 04:27:27 18° 268° (W) 04:30:40
Oscar 19 26 Sep 04:27:03 04:27:50 10° 305° (NW) 04:28:36 437.125/150
Gurwin Techsat 1B 26 Sep 04:31:40 04:34:21 14° 303° (WNW) 04:37:01 435.225
AO-7 26 Sep 04:35:15 04:43:36 81° 108° (ESE) 04:51:54 .
STARS 26 Sep 04:40:42 04:44:15 25° 66° (ENE) 04:47:49 437.465
BEESAT 3 26 Sep 04:53:00 04:56:04 21° 247° (WSW) 04:59:05 437.485
CUBESAT XI-V 26 Sep 04:56:17 05:00:39 37° 263° (W) 05:05:00 437.345
RS-15 26 Sep 04:56:59 05:09:00 65° 115° (ESE) 05:21:04 29.354- 29.394
BEESAT 2 26 Sep 05:05:59 05:09:55 49° 241° (WSW) 05:13:47 435.950
AO-85 26 Sep 05:15:34 05:19:49 43° 242° (WSW) 05:24:23 145.980
ITAMSAT 1 26 Sep 05:34:37 05:39:07 30° 295° (WNW) 05:43:36 435.822/435.867
XW-2C 26 Sep 05:51:42 05:53:37 13° 91° (E) 05:55:31 145.795 - 145.815
STRAND 1 26 Sep 05:55:34 05:58:39 16° 59° (ENE) 06:01:45 437.568
KKS-1 26 Sep 06:00:51 06:04:11 21° 266° (W) 06:07:33 437.445
CUTE-I 26 Sep 06:03:09 06:06:54 19° 91° (E) 06:10:40 437.470
LilacSat-2 26 Sep 06:06:27 06:09:27 21° 94° (E) 06:12:24 437.200
KAITUO 1B 26 Sep 06:14:25 06:17:02 18° 93° (E) 06:19:38 145.475/437.950
DOVE 4 26 Sep 06:16:19 06:20:36 81° 285° (WNW) 06:25:05 437.250
STARS 26 Sep 06:16:33 06:20:27 32° 263° (W) 06:24:23 437.465
AO-7 26 Sep 06:29:01 06:35:32 27° 308° (NW) 06:42:02 .
XW-2D 26 Sep 06:50:15 06:54:05 70° 102° (ESE) 06:57:50 145.860 - 145.880
HO-68 26 Sep 06:51:15 06:56:45 23° 92° (E) 07:02:14 435.675
XW-2F 26 Sep 07:00:24 07:04:13 85° 101° (E) 07:07:58 145.980 - 146.000
XW-2B 26 Sep 07:02:43 07:06:32 85° 289° (WNW) 07:10:19 145.730 - 145.750
RS-15 26 Sep 07:10:18 07:22:07 49° 320° (NW) 07:33:55 29.354- 29.394
NUDT-PHONESAT 26 Sep 07:14:20 07:18:05 85° 279° (W) 07:21:46 437.300
XW-2C 26 Sep 07:24:23 07:28:03 45° 287° (WNW) 07:31:40 145.795 - 145.815
CUTE 1.7 + AOD 2 26 Sep 07:25:39 07:29:29 33° 96° (E) 07:33:18 437.475
FO-29 26 Sep 07:27:28 07:30:23 15° 59° (ENE) 07:33:14 435.910
STRAND 1 26 Sep 07:32:09 07:37:14 72° 258° (WSW) 07:42:22 437.568
LilacSat-2 26 Sep 07:40:24 07:43:43 28° 291° (WNW) 07:47:01 437.200
CUTE-I 26 Sep 07:42:05 07:47:20 59° 289° (WNW) 07:52:34 437.470
KAITUO 1B 26 Sep 07:47:45 07:51:06 32° 290° (WNW) 07:54:25 145.475/437.950
XW-2A 26 Sep 08:17:35 08:20:58 52° 100° (E) 08:24:17 145.665 - 145.685
CUBEBUG 2 26 Sep 08:23:43 08:28:28 81° 102° (ESE) 08:33:14 437.445
UWE-3 26 Sep 08:24:41 08:29:16 49° 99° (E) 08:33:46 435.000/436.395/437.385
UNISAT 6 26 Sep 08:25:56 08:28:06 14° 60° (ENE) 08:30:18 437.425
SEEDS 26 Sep 08:27:25 08:31:37 82° 284° (WNW) 08:35:46 437.485
XW-2D 26 Sep 08:27:26 08:27:40 10° 299° (WNW) 08:27:54 145.860 - 145.880
HO-68 26 Sep 08:37:55 08:45:05 71° 290° (WNW) 08:52:13 435.675
AAUSAT CUBESAT 2 26 Sep 08:41:22 08:45:27 63° 100° (E) 08:49:30 437.432
TIGRISAT 26 Sep 08:47:33 08:50:46 20° 64° (ENE) 08:54:02 435.000
Oscar 11 26 Sep 08:57:06 09:01:06 35° 97° (E) 09:05:04 .
AO-73 26 Sep 09:01:09 09:05:41 58° 100° (E) 09:10:09 145.935
CUTE 1.7 + AOD 2 26 Sep 09:01:48 09:05:08 23° 293° (WNW) 09:08:28 437.475
ZACube-1 26 Sep 09:05:46 09:10:23 73° 102° (ESE) 09:14:55 437.345
FO-29 26 Sep 09:09:21 09:14:56 78° 257° (WSW) 09:20:11 435.910
RS-15 26 Sep 09:28:33 09:38:37 28° 353° (N) 09:48:27 29.354- 29.394
DELFI C3 26 Sep 09:43:25 09:46:40 24° 95° (E) 09:49:53 145.870
XW-2A 26 Sep 09:52:31 09:53:12 10° 297° (WNW) 09:53:53 145.665 - 145.685
UNISAT 6 26 Sep 09:59:52 10:04:13 69° 259° (WSW) 10:08:42 437.425
UWE-3 26 Sep 10:01:58 10:05:20 20° 296° (WNW) 10:08:40 435.000/436.395/437.385
CUBEBUG 2 26 Sep 10:02:14 10:04:25 13° 300° (WNW) 10:06:36 437.445
PRISM 26 Sep 10:03:34 10:07:37 72° 75° (ENE) 10:11:42 437.425
Max Valier Satellite 26 Sep 10:09:51 10:13:21 36° 98° (E) 10:16:48 145.860
AAUSAT CUBESAT 2 26 Sep 10:18:35 10:20:22 13° 298° (WNW) 10:22:10 437.432
EO-79 26 Sep 10:20:30 10:20:53 10° 59° (ENE) 10:21:15 145.935-145.965
O/OREOS (USA 219) 26 Sep 10:21:59 10:24:59 17° 51° (NE) 10:27:57 437.305
TIGRISAT 26 Sep 10:23:00 10:27:08 42° 262° (W) 10:31:25 435.000
HO-68 26 Sep 10:27:35 10:31:35 16° 310° (NW) 10:35:35 435.675
QB50P2 26 Sep 10:32:53 10:35:23 16° 63° (ENE) 10:37:54 145.880/145.840
Oscar 11 26 Sep 10:33:38 10:37:02 23° 294° (WNW) 10:40:25 .
AIST 2D 26 Sep 10:35:05 10:38:12 29° 70° (ENE) 10:41:19 435.315
AO-73 26 Sep 10:38:34 10:41:26 17° 297° (WNW) 10:44:18 145.935
ZACube-1 26 Sep 10:43:45 10:46:02 14° 299° (WNW) 10:48:19 437.345
YUBILEINY 26 Sep 10:51:24 10:57:54 24° 79° (E) 11:04:24 435.215
NO-84 26 Sep 11:00:13 11:01:59 13° 126° (SE) 11:03:41 435.350 FM
EO-88 26 Sep 11:03:43 11:07:21 62° 285° (WNW) 11:10:56 145.990 - 145.960
NANOSAT C BR1 26 Sep 11:04:03 11:07:31 26° 67° (ENE) 11:11:01 145.865
DELFI C3 26 Sep 11:18:05 11:21:21 26° 292° (WNW) 11:24:38 145.870
M-CUBED/EXP-1 PRIME 26 Sep 11:23:18 11:26:20 20° 62° (ENE) 11:29:14 437.505
DUCHIFAT 1 26 Sep 11:30:11 11:34:08 42° 71° (ENE) 11:38:07 145.980
ESTCUBE 1 26 Sep 11:32:28 11:36:11 25° 94° (E) 11:39:51 437.505/2401.250
Max Valier Satellite 26 Sep 11:44:26 11:46:53 17° 294° (WNW) 11:49:20 145.860
RS-15 26 Sep 11:44:56 11:55:54 36° 28° (NNE) 12:06:22 29.354- 29.394
POLYITAN 1 26 Sep 11:48:19 11:52:32 86° 73° (ENE) 11:56:48 437.675
LO-87 26 Sep 11:50:05 11:53:40 58° 101° (E) 11:57:14 145.935 - 145.965
EO-79 26 Sep 11:51:44 11:55:56 87° 252° (WSW) 12:00:12 145.935-145.965
BUGSAT 1 26 Sep 11:54:21 11:57:25 21° 66° (ENE) 12:00:31 437.445
O/OREOS (USA 219) 26 Sep 12:00:16 12:04:51 65° 250° (WSW) 12:09:24 437.305
QB50P2 26 Sep 12:06:36 12:10:43 53° 260° (W) 12:14:54 145.880/145.840
AIST 2D 26 Sep 12:08:56 12:11:25 18° 267° (W) 12:13:55 435.315
Oscar 19 26 Sep 12:24:15 12:28:33 27° 64° (ENE) 12:32:51 437.125/150
SO-50 26 Sep 12:27:22 12:30:07 16° 110° (ESE) 12:32:51 436.795
Gurwin Techsat 1B 26 Sep 12:33:56 12:38:03 23° 62° (ENE) 12:42:11 435.225
NO-84 26 Sep 12:35:02 12:38:59 88° 140° (SE) 12:42:37 435.350 FM
NANOSAT C BR1 26 Sep 12:39:27 12:43:07 29° 264° (W) 12:46:49 145.865
YUBILEINY 26 Sep 12:45:04 12:53:46 75° 280° (W) 13:02:30 435.215
PCSat 26 Sep 12:54:44 12:57:40 15° 104° (ESE) 13:00:36 145.827
M-CUBED/EXP-1 PRIME 26 Sep 12:56:39 13:00:34 38° 256° (WSW) 13:04:15 437.505
SPROUT 26 Sep 12:59:25 13:03:38 52° 100° (E) 13:07:49 437.525
DUCHIFAT 1 26 Sep 13:07:10 13:09:59 17° 268° (W) 13:12:50 145.980
ESTCUBE 1 26 Sep 13:08:58 13:13:01 34° 291° (WNW) 13:17:02 437.505/2401.250
VELOX 1 26 Sep 13:23:48 13:28:12 68° 102° (ESE) 13:32:33 145.980
LO-87 26 Sep 13:25:42 13:26:36 11° 297° (WNW) 13:27:29 145.935 - 145.965
BUGSAT 1 26 Sep 13:28:54 13:32:34 33° 263° (W) 13:36:18 437.445
AO-7 26 Sep 13:44:46 13:51:40 30° 54° (NE) 13:58:34 .
RS-15 26 Sep 13:58:08 14:10:15 87° 57° (ENE) 14:21:39 29.354- 29.394
Oscar 19 26 Sep 14:02:44 14:07:39 42° 262° (W) 14:12:35 437.125/150
SO-50 26 Sep 14:05:38 14:10:05 62° 308° (NW) 14:14:33 436.795
50 SAT 26 Sep 14:09:14 14:12:33 81° 102° (ESE) 14:15:52 437.505
UKube-1 26 Sep 14:09:16 14:13:13 34° 98° (E) 14:17:08 .
Gurwin Techsat 1B 26 Sep 14:12:30 14:17:39 51° 260° (W) 14:22:50 435.225
NO-84 26 Sep 14:13:51 14:16:44 21° 338° (NNW) 14:19:27 435.350 FM
DX 1 26 Sep 14:22:34 14:26:55 76° 103° (ESE) 14:31:15 434.975-435.025
PCSat 26 Sep 14:34:54 14:40:19 81° 301° (WNW) 14:45:47 145.827
SPROUT 26 Sep 14:36:26 14:39:07 16° 297° (WNW) 14:41:45 437.525
MOZHAYETS 4 26 Sep 14:42:32 14:42:50 10° 87° (E) 14:43:09
YUBILEINY 26 Sep 14:47:08 14:52:17 17° 303° (WNW) 14:57:27 435.215
VELOX 1 26 Sep 15:01:55 15:04:05 14° 299° (WNW) 15:06:15 145.980
ITAMSAT 1 26 Sep 15:14:06 15:19:12 66° 72° (ENE) 15:24:21 435.822/435.867
AO-7 26 Sep 15:35:30 15:43:48 71° 254° (WSW) 15:52:08 .
ITUPSAT 1 26 Sep 15:38:39 15:43:08 38° 98° (E) 15:47:36 437.325
UKube-1 26 Sep 15:45:38 15:49:03 23° 294° (WNW) 15:52:27 .
DOVE 4 26 Sep 15:48:37 15:50:14 12° 62° (ENE) 15:51:51 437.250
SO-50 26 Sep 15:49:25 15:51:27 13° 328° (NNW) 15:53:30 436.795
NO-84 26 Sep 15:53:38 15:55:09 12° 359° (N) 15:56:37 435.350 FM
DX 1 26 Sep 16:00:47 16:02:30 12° 300° (WNW) 16:04:11 434.975-435.025
RS-15 26 Sep 16:12:07 16:21:05 27° 259° (W) 16:29:47 29.354- 29.394
BEESAT 26 Sep 16:12:54 16:17:44 84° 106° (ESE) 16:22:32 436.000
MOZHAYETS 4 26 Sep 16:15:56 16:20:37 85° 286° (WNW) 16:25:14
PCSat 26 Sep 16:21:03 16:24:36 17° 322° (NW) 16:28:09 145.827
LilacSat-2 26 Sep 16:50:21 16:52:31 14° 64° (ENE) 16:54:40 437.200
CUBESAT XI-V 26 Sep 16:50:58 16:55:28 48° 99° (E) 16:59:53 437.345
ITAMSAT 1 26 Sep 16:55:59 16:59:08 16° 269° (W) 17:02:19 435.822/435.867
KAITUO 1B 26 Sep 16:56:55 16:58:16 12° 63° (ENE) 16:59:38 145.475/437.950
ITUPSAT 1 26 Sep 17:16:48 17:20:46 26° 295° (WNW) 17:24:44 437.325
HO-68 26 Sep 17:22:22 17:27:30 22° 54° (NE) 17:32:39 435.675
DOVE 4 26 Sep 17:23:06 17:27:26 70° 257° (WSW) 17:31:38 437.250
CUTE-I 26 Sep 17:25:55 17:30:43 36° 67° (ENE) 17:35:32 437.470
NO-84 26 Sep 17:31:04 17:33:34 20° 21° (NNE) 17:35:55 435.350 FM
XW-2D 26 Sep 17:32:22 17:35:58 39° 72° (ENE) 17:39:35 145.860 - 145.880
AO-7 26 Sep 17:34:18 17:38:00 13° 274° (W) 17:41:43 .
XW-2F 26 Sep 17:42:00 17:45:40 46° 73° (ENE) 17:49:22 145.980 - 146.000
XW-2B 26 Sep 17:44:40 17:48:25 53° 74° (ENE) 17:52:11 145.730 - 145.750
KKS-1 26 Sep 17:48:49 17:53:15 65° 101° (ESE) 17:57:40 437.445
BEESAT 26 Sep 17:52:39 17:54:49 13° 302° (WNW) 17:56:59 436.000
NUDT-PHONESAT 26 Sep 17:54:11 17:57:48 49° 73° (ENE) 18:01:27 437.300
MOZHAYETS 4 26 Sep 17:55:53 17:56:59 11° 302° (WNW) 17:58:06
STARS 26 Sep 18:03:51 18:07:59 38° 98° (E) 18:12:06 437.465
XW-2C 26 Sep 18:06:07 18:09:58 82° 260° (W) 18:13:51 145.795 - 145.815
CUTE 1.7 + AOD 2 26 Sep 18:19:25 18:23:05 28° 68° (ENE) 18:26:46 437.475
LilacSat-2 26 Sep 18:22:38 18:26:23 48° 261° (W) 18:30:10 437.200
KAITUO 1B 26 Sep 18:28:01 18:31:45 59° 259° (W) 18:35:32 145.475/437.950
CUBESAT XI-V 26 Sep 18:29:11 18:32:28 20° 296° (WNW) 18:35:44 437.345
Tancredo 1 26 Sep 18:41:52 18:44:32 78° 144° (SE) 18:47:13 437.200
BEESAT 3 26 Sep 18:42:31 18:46:17 40° 118° (ESE) 18:50:05 437.485
XW-2A 26 Sep 18:50:13 18:52:53 21° 69° (ENE) 18:55:35 145.665 - 145.685
BEESAT 2 26 Sep 18:58:51 19:01:44 19° 112° (ESE) 19:04:38 435.950
ISS 26 Sep 19:02:50 19:05:12 19° 134° (SE) 19:07:35 437.550
CUTE-I 26 Sep 19:06:06 19:10:46 31° 264° (W) 19:15:29 437.470
HO-68 26 Sep 19:07:14 19:14:24 84° 254° (WSW) 19:21:37 435.675
XW-2D 26 Sep 19:07:55 19:10:19 16° 268° (W) 19:12:43 145.860 - 145.880
NO-84 26 Sep 19:08:09 19:11:14 65° 222° (SW) 19:14:06 435.350 FM
XW-2F 26 Sep 19:18:08 19:20:03 13° 269° (W) 19:21:57 145.980 - 146.000
SEEDS 26 Sep 19:19:41 19:23:55 79° 77° (ENE) 19:28:11 437.485
XW-2B 26 Sep 19:21:25 19:22:54 12° 270° (W) 19:24:24 145.730 - 145.750
UWE-3 26 Sep 19:22:41 19:26:48 44° 71° (ENE) 19:31:04 435.000/436.395/437.385
CUBEBUG 2 26 Sep 19:22:48 19:27:05 76° 74° (ENE) 19:31:32 437.445
KKS-1 26 Sep 19:26:52 19:29:18 15° 299° (WNW) 19:31:42 437.445
NUDT-PHONESAT 26 Sep 19:30:23 19:31:57 12° 270° (W) 19:33:30 437.300
AO-85 26 Sep 19:31:32 19:35:11 39° 118° (ESE) 19:38:52 145.980
AAUSAT CUBESAT 2 26 Sep 19:32:14 19:36:14 48° 73° (ENE) 19:40:15 437.432
nSIGHT-1 26 Sep 19:34:48 19:37:50 40° 141° (SE) 19:40:53 .
STARS 26 Sep 19:40:41 19:44:05 22° 295° (WNW) 19:47:30 437.465
STRAND 1 26 Sep 19:41:24 19:46:06 35° 97° (E) 19:50:47 437.568
Oscar 11 26 Sep 19:52:57 19:56:49 32° 69° (ENE) 20:00:43 .
CUTE 1.7 + AOD 2 26 Sep 19:55:12 19:58:51 27° 265° (W) 20:02:32 437.475
AO-73 26 Sep 19:57:26 20:01:40 50° 72° (ENE) 20:06:01 145.935
ZACube-1 26 Sep 20:02:18 20:06:38 64° 74° (ENE) 20:11:05 437.345
Tancredo 1 26 Sep 20:17:03 20:19:11 21° 345° (NNW) 20:21:19 437.200
FO-29 26 Sep 20:18:36 20:20:08 11° 88° (E) 20:21:40 435.910
BEESAT 3 26 Sep 20:20:41 20:23:59 24° 316° (NW) 20:27:17 437.485
XW-2A 26 Sep 20:22:46 20:25:31 22° 265° (W) 20:28:16 145.665 - 145.685
DELFI C3 26 Sep 20:30:23 20:33:04 18° 66° (ENE) 20:35:46 145.870
BEESAT 2 26 Sep 20:35:18 20:39:10 44° 310° (NW) 20:43:04 435.950
ISS 26 Sep 20:38:09 20:41:24 61° 332° (NNW) 20:44:39 437.550
Max Valier Satellite 26 Sep 20:50:14 20:53:02 21° 67° (ENE) 20:55:52 145.860
SO-50 26 Sep 20:55:28 20:59:20 26° 43° (NE) 21:03:11 436.795
HO-68 26 Sep 20:59:12 21:03:08 15° 272° (W) 21:07:04 435.675
YUBILEINY 26 Sep 20:59:36 21:03:09 13° 53° (NE) 21:06:40 435.215
UWE-3 26 Sep 21:00:28 21:03:30 18° 269° (W) 21:06:36 435.000/436.395/437.385
CUBEBUG 2 26 Sep 21:03:34 21:04:17 10° 273° (W) 21:05:01 437.445
AAUSAT CUBESAT 2 26 Sep 21:09:30 21:11:57 15° 269° (W) 21:14:24 437.432
nSIGHT-1 26 Sep 21:11:11 21:14:12 35° 339° (NNW) 21:17:13 .
AO-85 26 Sep 21:12:36 21:15:42 22° 317° (NW) 21:18:53 145.980
STRAND 1 26 Sep 21:20:42 21:25:12 31° 294° (WNW) 21:29:41 437.568
Oscar 11 26 Sep 21:29:24 21:32:58 24° 266° (W) 21:36:34 .
AO-73 26 Sep 21:35:26 21:38:12 16° 270° (W) 21:41:01 145.935
PCSat 26 Sep 21:38:52 21:42:56 21° 41° (NE) 21:46:59 145.827
ZACube-1 26 Sep 21:41:22 21:43:22 13° 272° (W) 21:45:24 437.345
EO-88 26 Sep 21:42:01 21:45:39 64° 75° (ENE) 21:49:18 145.990 - 145.960
UNISAT 6 26 Sep 21:50:23 21:54:10 24° 93° (E) 21:57:57 437.425
Tancredo 1 26 Sep 21:52:30 21:54:15 16° 5° (N) 21:56:01 437.200
FO-29 26 Sep 22:00:16 22:05:52 81° 104° (ESE) 22:12:08 435.910
DELFI C3 26 Sep 22:03:52 22:07:33 38° 262° (W) 22:11:15 145.870
TIGRISAT 26 Sep 22:12:40 22:17:01 36° 97° (E) 22:21:20 435.000
ISS 26 Sep 22:15:40 22:18:20 22° 351° (N) 22:21:00 437.550
Max Valier Satellite 26 Sep 22:23:26 22:26:42 28° 264° (W) 22:29:59 145.860
LO-87 26 Sep 22:27:25 22:30:26 27° 70° (ENE) 22:33:30 145.935 - 145.965
ESTCUBE 1 26 Sep 22:33:06 22:36:56 28° 67° (ENE) 22:40:46 437.505/2401.250
SO-50 26 Sep 22:35:34 22:39:59 48° 241° (WSW) 22:44:27 436.795
nSIGHT-1 26 Sep 22:48:40 22:51:10 20° 359° (N) 22:53:39 .
YUBILEINY 26 Sep 22:53:30 23:02:08 60° 77° (ENE) 23:10:46 435.215
PRISM 26 Sep 23:18:24 23:22:29 83° 285° (WNW) 23:26:33 437.425
PCSat 26 Sep 23:21:31 23:26:57 78° 242° (WSW) 23:32:21 145.827
UNISAT 6 26 Sep 23:26:37 23:30:58 39° 290° (WNW) 23:35:19 437.425
Tancredo 1 26 Sep 23:26:40 23:29:12 36° 25° (NNE) 23:31:42 437.200
AIST 2D 26 Sep 23:31:28 23:34:34 28° 96° (E) 23:37:38 435.315
POLYITAN 1 26 Sep 23:33:22 23:35:22 13° 90° (E) 23:37:22 437.675
EO-79 26 Sep 23:36:22 23:38:38 14° 90° (E) 23:40:54 145.935-145.965
FO-29 26 Sep 23:47:03 23:50:27 17° 300° (WNW) 23:54:01 435.910
TIGRISAT 26 Sep 23:49:38 23:53:31 26° 294° (WNW) 23:57:24 435.000
QB50P2 26 Sep 23:50:26 23:53:48 22° 94° (E) 23:57:08 145.880/145.840
ISS 26 Sep 23:52:49 23:55:33 24° 11° (N) 23:58:18 437.550
SPROUT 26 Sep 23:53:39 23:57:42 46° 72° (ENE) 00:01:47 437.525
LO-87 27 Sep 00:01:19 00:03:52 19° 266° (W) 00:06:27 145.935 - 145.965
ESTCUBE 1 27 Sep 00:09:35 00:13:37 31° 264° (W) 00:17:41 437.505/2401.250
NANOSAT C BR1 27 Sep 00:21:38 00:25:38 38° 98° (E) 00:29:36 145.865
VELOX 1 27 Sep 00:21:54 00:26:16 70° 74° (ENE) 00:30:39 145.980
nSIGHT-1 27 Sep 00:25:12 00:28:10 31° 19° (NNE) 00:31:07 .
O/OREOS (USA 219) 27 Sep 00:37:41 00:39:22 12° 97° (E) 00:41:04 437.305
50 SAT 27 Sep 00:40:06 00:43:02 30° 71° (ENE) 00:45:58 437.505
DUCHIFAT 1 27 Sep 00:47:50 00:52:05 65° 101° (E) 00:56:19 145.980
